| time (UTC) | temp C | wind direction | speed KPH | gust KPH | rain 1hr cm | rain 24hr cm | rain mn cm | humidity % | barometer mb |
| 20260510205201 | 28 | 214 | 3.2 | 3.2 | 0.00 | 0.00 | 0.00 | 83 | 1007.3 |
| 20260510204657 | 28 | 163 | 3.2 | 3.2 | 0.00 | 0.00 | 0.00 | 82 | 1007.2 |
| 20260510204154 | 29 | 198 | 1.6 | 3.2 | 0.00 | 0.00 | 0.00 | 82 | 1007.5 |
| 20260510203651 | 29 | 197 | 3.2 | 3.2 | 0.00 | 0.00 | 0.00 | 81 | 1007.3 |
| 20260510203149 | 30 | 180 | 3.2 | 3.2 | 0.00 | 0.00 | 0.00 | 80 | 1007.4 |
| 20260510202643 | 29 | 178 | 1.6 | 1.6 | 0.00 | 0.00 | 0.00 | 83 | 1007.3 |
| 20260510202138 | 28 | 233 | 1.6 | 3.2 | 0.00 | 0.00 | 0.00 | 84 | 1007.3 |
| 20260510201636 | 28 | 177 | 3.2 | 3.2 | 0.00 | 0.00 | 0.00 | 84 | 1007.4 |
| 20260510201133 | 29 | 246 | 1.6 | 3.2 | 0.00 | 0.00 | 0.00 | 83 | 1007.5 |
| 20260510200629 | 28 | 201 | 1.6 | 3.2 | 0.00 | 0.00 | 0.00 | 84 | 1007.6 |
| 20260510200127 | 28 | 204 | 3.2 | 4.8 | 0.00 | 0.00 | 0.00 | 83 | 1007.5 |
| 20260510195624 | 28 | 202 | 3.2 | 4.8 | 0.00 | 0.00 | 0.00 | 84 | 1007.7 |
| 20260510195120 | 29 | 284 | 1.6 | 4.8 | 0.00 | 0.00 | 0.00 | 83 | 1007.7 |
| 20260510194620 | 28 | 141 | 8.0 | 9.7 | 0.00 | 0.00 | 0.00 | 85 | 1008.0 |
| 20260510194117 | 29 | 149 | 3.2 | 4.8 | 0.00 | 0.00 | 0.00 | 84 | 1007.7 |
| 20260510193617 | 28 | 246 | 4.8 | 6.4 | 0.00 | 0.00 | 0.00 | 86 | 1008.1 |
| 20260510193113 | 28 | 225 | 4.8 | 9.7 | 0.00 | 0.00 | 0.00 | 86 | 1008.3 |
| 20260510192607 | 28 | 251 | 3.2 | 3.2 | 0.00 | 0.00 | 0.00 | 85 | 1008.1 |
| 20260510192103 | 28 | 209 | 1.6 | 4.8 | 0.00 | 0.00 | 0.00 | 85 | 1008.1 |
| 20260510191600 | 29 | 188 | 1.6 | 3.2 | 0.00 | 0.00 | 0.00 | 84 | 1008.0 |
| 20260510191057 | 30 | 212 | 3.2 | 3.2 | 0.00 | 0.00 | 0.00 | 83 | 1007.9 |
| 20260510190554 | 30 | 219 | 3.2 | 9.7 | 0.00 | 0.00 | 0.00 | 81 | 1007.9 |
| 20260510190051 | 29 | 211 | 4.8 | 4.8 | 0.00 | 0.00 | 0.00 | 83 | 1007.9 |
| 20260510185548 | 28 | 204 | 1.6 | 3.2 | 0.00 | 0.00 | 0.00 | 85 | 1008.1 |
| 20260510185040 | 28 | 287 | 1.6 | 3.2 | 0.00 | 0.00 | 0.00 | 86 | 1008.0 |
| 20260510184537 | 28 | 301 | 3.2 | 6.4 | 0.00 | 0.00 | 0.00 | 86 | 1008.1 |
| 20260510184032 | 28 | 0 | 3.2 | 4.8 | 0.00 | 0.00 | 0.00 | 85 | 1008.2 |
| 20260510183528 | 28 | 206 | 3.2 | 4.8 | 0.00 | 0.00 | 0.00 | 86 | 1008.1 |
| 20260510183023 | 28 | 224 | 1.6 | 1.6 | 0.00 | 0.00 | 0.00 | 85 | 1008.2 |
| 20260510182520 | 28 | 14 | 3.2 | 3.2 | 0.00 | 0.00 | 0.00 | 86 | 1008.1 |
| 20260510182015 | 29 | 239 | 4.8 | 6.4 | 0.00 | 0.00 | 0.00 | 84 | 1008.3 |
| 20260510181513 | 29 | 217 | 6.4 | 12.9 | 0.00 | 0.00 | 0.00 | 84 | 1008.2 |
| 20260510181009 | 29 | 237 | 1.6 | 1.6 | 0.00 | 0.00 | 0.00 | 84 | 1008.1 |
| 20260510180506 | 29 | 196 | 1.6 | 6.4 | 0.00 | 0.00 | 0.00 | 84 | 1008.1 |
| 20260510180004 | 28 | 219 | 1.6 | 3.2 | 0.00 | 0.00 | 0.00 | 84 | 1008.2 |
| 20260510175458 | 28 | 244 | 3.2 | 4.8 | 0.00 | 0.00 | 0.00 | 85 | 1008.2 |
| 20260510174954 | 29 | 282 | 3.2 | 4.8 | 0.00 | 0.00 | 0.00 | 84 | 1008.2 |
| 20260510174453 | 29 | 195 | 1.6 | 3.2 | 0.00 | 0.00 | 0.00 | 85 | 1008.2 |
| 20260510173949 | 28 | 195 | 3.2 | 4.8 | 0.00 | 0.00 | 0.00 | 86 | 1008.4 |
| 20260510173445 | 28 | 191 | 4.8 | 6.4 | 0.00 | 0.00 | 0.00 | 87 | 1008.2 |
| 20260510172942 | 28 | 295 | 6.4 | 14.5 | 0.00 | 0.00 | 0.00 | 86 | 1008.1 |
| 20260510172437 | 28 | 325 | 4.8 | 9.7 | 0.00 | 0.00 | 0.00 | 87 | 1008.1 |
| 20260510171934 | 28 | 326 | 8.0 | 9.7 | 0.00 | 0.00 | 0.00 | 87 | 1008.2 |
| 20260510171431 | 28 | 149 | 4.8 | 4.8 | 0.00 | 0.00 | 0.00 | 87 | 1008.1 |
| 20260510170928 | 28 | 339 | 3.2 | 4.8 | 0.00 | 0.00 | 0.00 | 86 | 1008.4 |
| 20260510170425 | 28 | 306 | 3.2 | 3.2 | 0.00 | 0.00 | 0.00 | 88 | 1008.3 |
| 20260510165920 | 28 | 292 | 4.8 | 9.7 | 0.00 | 0.00 | 0.00 | 87 | 1008.3 |
| 20260510165417 | 28 | 0 | 3.2 | 4.8 | 0.00 | 0.00 | 0.00 | 86 | 1008.1 |
| 20260510164914 | 28 | 346 | 3.2 | 6.4 | 0.00 | 0.00 | 0.00 | 87 | 1008.1 |
| 20260510164411 | 28 | 42 | 1.6 | 4.8 | 0.00 | 0.00 | 0.00 | 87 | 1008.1 |
| 20260510163911 | 28 | 27 | 3.2 | 3.2 | 0.00 | 0.00 | 0.00 | 87 | 1008.0 |
| 20260510163407 | 28 | 13 | 6.4 | 6.4 | 0.00 | 0.00 | 0.00 | 85 | 1008.1 |
| 20260510162901 | 28 | 209 | 3.2 | 3.2 | 0.00 | 0.00 | 0.00 | 84 | 1008.1 |
| 20260510162359 | 28 | 207 | 3.2 | 3.2 | 0.00 | 0.00 | 0.00 | 84 | 1007.8 |
| 20260510161854 | 28 | 340 | 3.2 | 3.2 | 0.00 | 0.00 | 0.00 | 85 | 1008.1 |
| 20260510161350 | 28 | 217 | 1.6 | 3.2 | 0.00 | 0.00 | 0.00 | 83 | 1007.9 |
| 20260510160848 | 28 | 22 | 1.6 | 4.8 | 0.00 | 0.00 | 0.00 | 82 | 1007.9 |
| 20260510160344 | 29 | 198 | 1.6 | 1.6 | 0.00 | 0.00 | 0.00 | 82 | 1007.8 |
| 20260510155838 | 28 | 189 | 3.2 | 3.2 | 0.00 | 0.00 | 0.00 | 84 | 1007.9 |
| 20260510155336 | 28 | 187 | 3.2 | 3.2 | 0.00 | 0.00 | 0.00 | 84 | 1008.0 |
| 20260510154831 | 28 | 208 | 0.0 | 1.6 | 0.00 | 0.00 | 0.00 | 84 | 1007.8 |
| 20260510154327 | 28 | 200 | 1.6 | 1.6 | 0.00 | 0.00 | 0.00 | 84 | 1008.0 |
| 20260510153822 | 28 | 88 | 3.2 | 3.2 | 0.00 | 0.00 | 0.00 | 84 | 1007.7 |
| 20260510153318 | 28 | 293 | 3.2 | 4.8 | 0.00 | 0.00 | 0.00 | 84 | 1007.7 |
| 20260510152815 | 28 | 287 | 3.2 | 4.8 | 0.00 | 0.00 | 0.00 | 83 | 1007.8 |
| 20260510152312 | 28 | 199 | 0.0 | 1.6 | 0.00 | 0.00 | 0.00 | 85 | 1007.7 |
| 20260510151809 | 27 | 193 | 3.2 | 4.8 | 0.00 | 0.00 | 0.00 | 85 | 1007.8 |
| 20260510151307 | 27 | 182 | 1.6 | 3.2 | 0.00 | 0.00 | 0.00 | 86 | 1007.5 |
| 20260510150802 | 28 | 202 | 0.0 | 0.0 | 0.00 | 0.00 | 0.00 | 86 | 1007.6 |
| 20260510150258 | 27 | 215 | 0.0 | 1.6 | 0.00 | 0.00 | 0.00 | 86 | 1007.5 |
| 20260510145754 | 28 | 164 | 1.6 | 3.2 | 0.00 | 0.00 | 0.00 | 86 | 1007.6 |
| 20260510145251 | 28 | 210 | 0.0 | 1.6 | 0.00 | 0.00 | 0.00 | 85 | 1007.3 |
| 20260510144747 | 28 | 198 | 1.6 | 3.2 | 0.00 | 0.00 | 0.00 | 85 | 1007.1 |
| 20260510144243 | 27 | 193 | 1.6 | 1.6 | 0.00 | 0.00 | 0.00 | 86 | 1007.3 |
| 20260510143738 | 27 | 191 | 1.6 | 1.6 | 0.00 | 0.00 | 0.00 | 88 | 1007.2 |
| 20260510143234 | 27 | 201 | 0.0 | 1.6 | 0.00 | 0.00 | 0.00 | 87 | 1007.3 |
| 20260510142731 | 27 | 199 | 1.6 | 3.2 | 0.00 | 0.00 | 0.00 | 88 | 1007.2 |
| 20260510142228 | 26 | 107 | 1.6 | 3.2 | 0.00 | 0.00 | 0.00 | 91 | 1007.0 |
| 20260510141725 | 27 | 182 | 3.2 | 4.8 | 0.00 | 0.00 | 0.00 | 90 | 1007.0 |
| 20260510141223 | 27 | 214 | 0.0 | 1.6 | 0.00 | 0.00 | 0.00 | 90 | 1006.9 |
| 20260510140719 | 26 | 198 | 1.6 | 1.6 | 0.00 | 0.00 | 0.00 | 92 | 1006.9 |
| 20260510140214 | 26 | 195 | 1.6 | 1.6 | 0.00 | 0.00 | 0.00 | 92 | 1006.8 |
| 20260510135709 | 26 | 207 | 0.0 | 0.0 | 0.00 | 0.00 | 0.00 | 93 | 1006.9 |
| 20260510135205 | 26 | 157 | 3.2 | 3.2 | 0.00 | 0.00 | 0.00 | 93 | 1007.1 |
| 20260510134702 | 26 | 190 | 3.2 | 4.8 | 0.00 | 0.00 | 0.00 | 93 | 1006.8 |
| 20260510134200 | 26 | 192 | 1.6 | 1.6 | 0.00 | 0.00 | 0.00 | 92 | 1006.7 |
| 20260510133655 | 26 | 194 | 3.2 | 3.2 | 0.00 | 0.00 | 0.00 | 91 | 1006.9 |
| 20260510133151 | 26 | 212 | 0.0 | 1.6 | 0.00 | 0.00 | 0.00 | 93 | 1007.0 |
| 20260510132647 | 26 | 202 | 1.6 | 1.6 | 0.00 | 0.00 | 0.00 | 95 | 1007.0 |
| 20260510132145 | 25 | 192 | 0.0 | 0.0 | 0.00 | 0.00 | 0.00 | 96 | 1006.6 |
| 20260510131642 | 25 | 204 | 1.6 | 3.2 | 0.00 | 0.00 | 0.00 | 97 | 1006.7 |
| 20260510131139 | 25 | 207 | 0.0 | 0.0 | 0.00 | 0.00 | 0.00 | 98 | 1006.7 |
| 20260510130636 | 25 | 177 | 0.0 | 0.0 | 0.00 | 0.00 | 0.00 | 98 | 1006.5 |
| 20260510130133 | 25 | 165 | 1.6 | 3.2 | 0.00 | 0.00 | 0.00 | 99 | 1006.4 |
| 20260510125629 | 25 | 164 | 1.6 | 3.2 | 0.00 | 0.00 | 0.00 | 99 | 1006.4 |
| 20260510125126 | 25 | 202 | 0.0 | 0.0 | 0.00 | 0.00 | 0.00 | 99 | 1006.6 |
| 20260510124623 | 25 | 202 | 0.0 | 0.0 | 0.00 | 0.00 | 0.00 | 99 | 1006.7 |
| 20260510124120 | 25 | 203 | 0.0 | 0.0 | 0.00 | 0.00 | 0.00 | 99 | 1006.4 |
| 20260510123615 | 24 | 201 | 0.0 | 0.0 | 0.00 | 0.00 | 0.00 | 99 | 1006.5 |
| 20260510123111 | 24 | 208 | 0.0 | 0.0 | 0.00 | 0.00 | 0.00 | 99 | 1006.5 |
| 20260510122607 | 24 | 209 | 0.0 | 0.0 | 0.00 | 0.00 | 0.00 | 99 | 1006.3 |
| 20260510122103 | 24 | 208 | 0.0 | 0.0 | 0.00 | 0.00 | 0.00 | 99 | 1006.5 |
| 20260510121601 | 24 | 198 | 0.0 | 0.0 | 0.00 | 0.00 | 0.00 | 99 | 1006.3 |
| 20260510121057 | 24 | 214 | 0.0 | 0.0 | 0.00 | 0.00 | 0.00 | 99 | 1006.1 |
| 20260510120555 | 24 | 217 | 0.0 | 0.0 | 0.00 | 0.00 | 0.00 | 99 | 1006.3 |
| 20260510120050 | 24 | 240 | 0.0 | 0.0 | 0.00 | 0.00 | 0.00 | 99 | 1006.4 |
| 20260510115547 | 24 | 277 | 0.0 | 0.0 | 0.00 | 0.00 | 0.00 | 99 | 1006.0 |
| 20260510115045 | 23 | 308 | 0.0 | 0.0 | 0.00 | 0.00 | 0.00 | 99 | 1006.3 |
| 20260510114540 | 23 | 318 | 0.0 | 0.0 | 0.00 | 0.00 | 0.00 | 99 | 1005.9 |
| 20260510114036 | 23 | 318 | 0.0 | 0.0 | 0.00 | 0.00 | 0.00 | 99 | 1005.9 |
| 20260510113531 | 23 | 312 | 0.0 | 0.0 | 0.00 | 0.00 | 0.00 | 99 | 1005.9 |
| 20260510113030 | 23 | 302 | 0.0 | 0.0 | 0.00 | 0.00 | 0.00 | 99 | 1005.8 |
| 20260510112526 | 23 | 284 | 0.0 | 0.0 | 0.00 | 0.00 | 0.00 | 99 | 1006.0 |
| 20260510112022 | 23 | 258 | 0.0 | 0.0 | 0.00 | 0.00 | 0.00 | 99 | 1005.9 |
| 20260510111519 | 23 | 241 | 0.0 | 0.0 | 0.00 | 0.00 | 0.00 | 99 | 1005.9 |
| 20260510111015 | 23 | 233 | 0.0 | 0.0 | 0.00 | 0.00 | 0.00 | 99 | 1005.7 |
| 20260510110511 | 24 | 224 | 0.0 | 0.0 | 0.00 | 0.00 | 0.00 | 99 | 1006.0 |
| 20260510110008 | 24 | 216 | 0.0 | 0.0 | 0.00 | 0.00 | 0.00 | 99 | 1005.8 |
| 20260510105503 | 24 | 208 | 0.0 | 0.0 | 0.00 | 0.00 | 0.00 | 99 | 1006.1 |
| 20260510104958 | 24 | 214 | 0.0 | 0.0 | 0.00 | 0.00 | 0.00 | 99 | 1006.0 |
| 20260510104455 | 24 | 217 | 0.0 | 0.0 | 0.00 | 0.00 | 0.00 | 99 | 1005.8 |
| 20260510103951 | 24 | 218 | 0.0 | 0.0 | 0.00 | 0.00 | 0.00 | 99 | 1005.9 |
| 20260510103449 | 24 | 217 | 0.0 | 0.0 | 0.00 | 0.00 | 0.00 | 99 | 1005.7 |
| 20260510102944 | 23 | 216 | 0.0 | 0.0 | 0.00 | 0.00 | 0.00 | 99 | 1005.7 |
| 20260510102440 | 23 | 216 | 0.0 | 0.0 | 0.00 | 0.00 | 0.00 | 99 | 1005.6 |
| 20260510101937 | 23 | 216 | 0.0 | 0.0 | 0.00 | 0.00 | 0.00 | 99 | 1005.7 |
| 20260510101435 | 23 | 186 | 0.0 | 0.0 | 0.00 | 0.00 | 0.00 | 99 | 1005.8 |
| 20260510100933 | 23 | 207 | 0.0 | 0.0 | 0.00 | 0.00 | 0.00 | 99 | 1005.7 |
| 20260510100429 | 23 | 209 | 0.0 | 0.0 | 0.00 | 0.00 | 0.00 | 99 | 1005.9 |
| 20260510095925 | 23 | 206 | 0.0 | 0.0 | 0.00 | 0.00 | 0.00 | 99 | 1005.8 |
| 20260510095421 | 23 | 209 | 0.0 | 0.0 | 0.00 | 0.00 | 0.00 | 99 | 1005.8 |
| 20260510094920 | 23 | 208 | 0.0 | 0.0 | 0.00 | 0.00 | 0.00 | 99 | 1005.7 |
| 20260510094415 | 23 | 213 | 0.0 | 0.0 | 0.00 | 0.00 | 0.00 | 99 | 1006.0 |
| 20260510093911 | 23 | 205 | 0.0 | 0.0 | 0.00 | 0.00 | 0.00 | 99 | 1005.8 |
| 20260510093407 | 23 | 204 | 0.0 | 0.0 | 0.00 | 0.00 | 0.00 | 99 | 1005.7 |
| 20260510092904 | 23 | 208 | 0.0 | 0.0 | 0.00 | 0.00 | 0.00 | 99 | 1005.7 |
| 20260510092401 | 23 | 208 | 0.0 | 0.0 | 0.00 | 0.00 | 0.00 | 99 | 1005.5 |
| 20260510091855 | 23 | 208 | 0.0 | 0.0 | 0.00 | 0.00 | 0.00 | 99 | 1005.6 |
| 20260510091353 | 23 | 208 | 0.0 | 0.0 | 0.00 | 0.00 | 0.00 | 99 | 1005.7 |
| 20260510090849 | 24 | 209 | 0.0 | 0.0 | 0.00 | 0.00 | 0.00 | 99 | 1005.6 |
| 20260510090346 | 24 | 206 | 0.0 | 0.0 | 0.00 | 0.00 | 0.00 | 99 | 1005.4 |
| 20260510085841 | 24 | 210 | 0.0 | 0.0 | 0.00 | 0.00 | 0.00 | 99 | 1005.7 |
| 20260510085336 | 24 | 208 | 0.0 | 0.0 | 0.00 | 0.00 | 0.00 | 99 | 1005.8 |
| 20260510084832 | 24 | 207 | 0.0 | 0.0 | 0.00 | 0.00 | 0.00 | 99 | 1005.7 |
| 20260510084330 | 24 | 212 | 0.0 | 0.0 | 0.00 | 0.00 | 0.00 | 99 | 1005.7 |
| 20260510083826 | 24 | 228 | 1.6 | 1.6 | 0.00 | 0.00 | 0.00 | 99 | 1005.6 |
| 20260510083323 | 24 | 206 | 0.0 | 0.0 | 0.00 | 0.00 | 0.00 | 99 | 1005.6 |
| 20260510082818 | 24 | 221 | 0.0 | 0.0 | 0.00 | 0.00 | 0.00 | 99 | 1005.7 |
| 20260510082316 | 24 | 206 | 0.0 | 0.0 | 0.00 | 0.00 | 0.00 | 99 | 1005.5 |
| 20260510081815 | 24 | 208 | 0.0 | 0.0 | 0.00 | 0.00 | 0.00 | 99 | 1005.8 |
| 20260510081311 | 24 | 201 | 0.0 | 0.0 | 0.00 | 0.00 | 0.00 | 99 | 1005.7 |
| 20260510080807 | 24 | 202 | 0.0 | 0.0 | 0.00 | 0.00 | 0.00 | 99 | 1005.7 |
| 20260510080302 | 24 | 201 | 0.0 | 0.0 | 0.00 | 0.00 | 0.00 | 99 | 1005.7 |
| 20260510075759 | 24 | 201 | 0.0 | 0.0 | 0.00 | 0.00 | 0.00 | 99 | 1005.9 |
| 20260510075256 | 24 | 206 | 0.0 | 0.0 | 0.00 | 0.00 | 0.00 | 99 | 1005.9 |
| 20260510074753 | 24 | 202 | 0.0 | 0.0 | 0.00 | 0.00 | 0.00 | 98 | 1005.7 |
| 20260510074250 | 24 | 203 | 0.0 | 0.0 | 0.00 | 0.00 | 0.00 | 98 | 1005.9 |
| 20260510073746 | 24 | 201 | 0.0 | 0.0 | 0.00 | 0.00 | 0.00 | 98 | 1005.9 |
| 20260510073242 | 24 | 197 | 3.2 | 4.8 | 0.00 | 0.00 | 0.00 | 98 | 1005.8 |
| 20260510072737 | 24 | 199 | 0.0 | 0.0 | 0.00 | 0.00 | 0.00 | 98 | 1006.0 |
| 20260510072235 | 24 | 203 | 0.0 | 0.0 | 0.00 | 0.00 | 0.00 | 97 | 1006.0 |
| 20260510071731 | 24 | 205 | 0.0 | 0.0 | 0.00 | 0.00 | 0.00 | 97 | 1005.9 |
| 20260510071228 | 24 | 176 | 1.6 | 3.2 | 0.00 | 0.00 | 0.00 | 97 | 1005.9 |
| 20260510070726 | 24 | 192 | 1.6 | 1.6 | 0.00 | 0.00 | 0.00 | 97 | 1005.8 |
| 20260510070223 | 24 | 199 | 0.0 | 0.0 | 0.00 | 0.00 | 0.00 | 97 | 1005.9 |
| 20260510065718 | 24 | 202 | 0.0 | 0.0 | 0.00 | 0.00 | 0.00 | 97 | 1006.0 |
| 20260510065215 | 24 | 198 | 0.0 | 1.6 | 0.00 | 0.00 | 0.00 | 97 | 1006.0 |
| 20260510064711 | 24 | 199 | 1.6 | 1.6 | 0.00 | 0.00 | 0.00 | 96 | 1006.0 |
| 20260510064209 | 24 | 202 | 0.0 | 0.0 | 0.00 | 0.00 | 0.00 | 96 | 1006.3 |
| 20260510063705 | 24 | 208 | 0.0 | 0.0 | 0.00 | 0.00 | 0.00 | 96 | 1006.2 |
| 20260510063201 | 24 | 198 | 0.0 | 1.6 | 0.00 | 0.00 | 0.00 | 96 | 1006.2 |
| 20260510062658 | 24 | 203 | 0.0 | 0.0 | 0.00 | 0.00 | 0.00 | 96 | 1006.4 |
| 20260510062154 | 24 | 205 | 0.0 | 1.6 | 0.00 | 0.00 | 0.00 | 96 | 1006.2 |
| 20260510061649 | 24 | 190 | 1.6 | 1.6 | 0.00 | 0.00 | 0.00 | 96 | 1006.4 |
| 20260510061147 | 24 | 208 | 0.0 | 0.0 | 0.00 | 0.00 | 0.00 | 96 | 1006.3 |
| 20260510060643 | 24 | 203 | 0.0 | 0.0 | 0.00 | 0.00 | 0.00 | 95 | 1006.5 |
| 20260510060140 | 24 | 208 | 0.0 | 0.0 | 0.00 | 0.00 | 0.00 | 95 | 1006.2 |
| 20260510055636 | 24 | 213 | 0.0 | 0.0 | 0.00 | 0.00 | 0.00 | 95 | 1006.2 |
| 20260510055134 | 24 | 204 | 0.0 | 0.0 | 0.00 | 0.00 | 0.00 | 95 | 1006.3 |
| 20260510054630 | 24 | 200 | 0.0 | 0.0 | 0.00 | 0.00 | 0.00 | 94 | 1006.2 |
| 20260510054125 | 24 | 205 | 0.0 | 0.0 | 0.00 | 0.00 | 0.00 | 94 | 1006.1 |
| 20260510053625 | 24 | 281 | 3.2 | 3.2 | 0.00 | 0.00 | 0.00 | 94 | 1006.3 |
| 20260510053121 | 24 | 215 | 0.0 | 0.0 | 0.00 | 0.00 | 0.00 | 94 | 1005.9 |
| 20260510052617 | 24 | 189 | 0.0 | 1.6 | 0.00 | 0.00 | 0.00 | 94 | 1005.9 |
| 20260510052114 | 24 | 192 | 0.0 | 0.0 | 0.00 | 0.00 | 0.00 | 94 | 1005.8 |
| 20260510051609 | 24 | 198 | 0.0 | 0.0 | 0.00 | 0.00 | 0.00 | 94 | 1005.7 |
| 20260510051107 | 25 | 189 | 0.0 | 0.0 | 0.00 | 0.00 | 0.00 | 94 | 1005.6 |
| 20260510050604 | 25 | 194 | 0.0 | 0.0 | 0.00 | 0.00 | 0.00 | 93 | 1005.8 |
| 20260510050101 | 25 | 186 | 1.6 | 1.6 | 0.00 | 0.00 | 0.00 | 93 | 1005.5 |
| 20260510045558 | 25 | 206 | 1.6 | 1.6 | 0.00 | 0.00 | 0.00 | 92 | 1005.7 |
| 20260510045054 | 25 | 193 | 3.2 | 4.8 | 0.00 | 0.00 | 0.00 | 92 | 1005.3 |
| 20260510044550 | 25 | 146 | 3.2 | 3.2 | 0.00 | 0.00 | 0.00 | 92 | 1005.2 |
| 20260510044048 | 25 | 174 | 1.6 | 1.6 | 0.00 | 0.00 | 0.00 | 92 | 1005.5 |
| 20260510043543 | 25 | 192 | 1.6 | 1.6 | 0.00 | 0.00 | 0.00 | 91 | 1005.3 |
| 20260510043039 | 25 | 197 | 0.0 | 0.0 | 0.00 | 0.00 | 0.00 | 91 | 1005.5 |
| 20260510042533 | 25 | 186 | 0.0 | 0.0 | 0.00 | 0.00 | 0.00 | 91 | 1005.3 |
| 20260510042028 | 25 | 194 | 3.2 | 3.2 | 0.00 | 0.00 | 0.00 | 91 | 1005.6 |
| 20260510041526 | 25 | 175 | 1.6 | 1.6 | 0.00 | 0.00 | 0.00 | 91 | 1005.5 |
| 20260510041023 | 25 | 200 | 0.0 | 0.0 | 0.00 | 0.00 | 0.00 | 90 | 1005.8 |
| 20260510040520 | 25 | 201 | 0.0 | 1.6 | 0.00 | 0.00 | 0.00 | 90 | 1005.6 |
| 20260510040015 | 25 | 195 | 0.0 | 1.6 | 0.00 | 0.00 | 0.00 | 89 | 1005.6 |
| 20260510035512 | 25 | 193 | 0.0 | 0.0 | 0.00 | 0.00 | 0.00 | 89 | 1005.6 |
| 20260510035011 | 25 | 193 | 1.6 | 3.2 | 0.00 | 0.00 | 0.00 | 88 | 1005.5 |
| 20260510034510 | 25 | 194 | 0.0 | 0.0 | 0.00 | 0.00 | 0.00 | 88 | 1005.4 |
| 20260510034006 | 25 | 164 | 3.2 | 4.8 | 0.00 | 0.00 | 0.00 | 87 | 1005.4 |
| 20260510033502 | 25 | 190 | 0.0 | 1.6 | 0.00 | 0.00 | 0.00 | 87 | 1005.5 |
| 20260510033000 | 25 | 191 | 0.0 | 0.0 | 0.00 | 0.00 | 0.00 | 86 | 1005.4 |
| 20260510032456 | 25 | 189 | 0.0 | 1.6 | 0.00 | 0.00 | 0.00 | 86 | 1005.5 |
| 20260510031951 | 25 | 168 | 1.6 | 4.8 | 0.00 | 0.00 | 0.00 | 85 | 1005.5 |
| 20260510031447 | 25 | 180 | 1.6 | 1.6 | 0.00 | 0.00 | 0.00 | 85 | 1005.1 |
| 20260510030943 | 25 | 194 | 0.0 | 0.0 | 0.00 | 0.00 | 0.00 | 84 | 1005.1 |
| 20260510030438 | 25 | 184 | 1.6 | 3.2 | 0.00 | 0.00 | 0.00 | 84 | 1005.3 |
| 20260510025936 | 25 | 202 | 0.0 | 0.0 | 0.00 | 0.00 | 0.00 | 83 | 1004.9 |
| 20260510025433 | 25 | 190 | 1.6 | 3.2 | 0.00 | 0.00 | 0.00 | 83 | 1004.8 |
| 20260510024930 | 25 | 198 | 0.0 | 1.6 | 0.00 | 0.00 | 0.00 | 83 | 1004.9 |
| 20260510024427 | 25 | 195 | 0.0 | 0.0 | 0.00 | 0.00 | 0.00 | 83 | 1004.6 |
| 20260510023923 | 25 | 166 | 3.2 | 3.2 | 0.00 | 0.00 | 0.00 | 83 | 1004.8 |
| 20260510023419 | 25 | 199 | 0.0 | 0.0 | 0.00 | 0.00 | 0.00 | 82 | 1004.5 |
| 20260510022917 | 25 | 202 | 0.0 | 0.0 | 0.00 | 0.00 | 0.00 | 82 | 1004.5 |
| 20260510022415 | 25 | 180 | 1.6 | 1.6 | 0.00 | 0.00 | 0.00 | 81 | 1004.3 |
| 20260510021914 | 25 | 197 | 0.0 | 1.6 | 0.00 | 0.00 | 0.00 | 80 | 1004.3 |
| 20260510021413 | 26 | 203 | 0.0 | 0.0 | 0.00 | 0.00 | 0.00 | 79 | 1004.3 |
| 20260510020909 | 26 | 78 | 3.2 | 3.2 | 0.00 | 0.00 | 0.00 | 78 | 1004.4 |
| 20260510020404 | 26 | 179 | 1.6 | 3.2 | 0.00 | 0.00 | 0.00 | 77 | 1004.1 |
| 20260510015900 | 26 | 190 | 0.0 | 0.0 | 0.00 | 0.00 | 0.00 | 75 | 1004.0 |
| 20260510015356 | 26 | 185 | 1.6 | 3.2 | 0.00 | 0.00 | 0.00 | 73 | 1004.0 |
| 20260510014851 | 26 | 224 | 1.6 | 3.2 | 0.00 | 0.00 | 0.00 | 72 | 1004.1 |
| 20260510014349 | 26 | 191 | 1.6 | 1.6 | 0.00 | 0.00 | 0.00 | 71 | 1003.9 |
| 20260510013845 | 26 | 181 | 1.6 | 1.6 | 0.00 | 0.00 | 0.00 | 71 | 1003.9 |
| 20260510013340 | 26 | 199 | 0.0 | 1.6 | 0.00 | 0.00 | 0.00 | 71 | 1003.8 |
| 20260510012835 | 26 | 186 | 3.2 | 3.2 | 0.00 | 0.00 | 0.00 | 71 | 1003.7 |
| 20260510012330 | 27 | 92 | 1.6 | 4.8 | 0.00 | 0.00 | 0.00 | 71 | 1003.7 |
| 20260510011825 | 27 | 204 | 1.6 | 1.6 | 0.00 | 0.00 | 0.00 | 70 | 1003.7 |
| 20260510011321 | 27 | 188 | 0.0 | 1.6 | 0.00 | 0.00 | 0.00 | 68 | 1003.9 |
| 20260510010817 | 27 | 196 | 0.0 | 1.6 | 0.00 | 0.00 | 0.00 | 68 | 1003.8 |
| 20260510010315 | 27 | 205 | 0.0 | 1.6 | 0.00 | 0.00 | 0.00 | 68 | 1003.6 |
| 20260510005811 | 27 | 205 | 0.0 | 0.0 | 0.00 | 0.00 | 0.00 | 68 | 1004.0 |
| 20260510005307 | 27 | 215 | 0.0 | 1.6 | 0.00 | 0.00 | 0.00 | 67 | 1004.0 |
| 20260510004805 | 28 | 194 | 1.6 | 1.6 | 0.00 | 0.00 | 0.00 | 66 | 1004.0 |
| 20260510004303 | 28 | 196 | 1.6 | 1.6 | 0.00 | 0.00 | 0.00 | 65 | 1003.9 |
| 20260510003800 | 28 | 191 | 0.0 | 1.6 | 0.00 | 0.00 | 0.00 | 64 | 1003.8 |
| 20260510003257 | 28 | 235 | 1.6 | 3.2 | 0.00 | 0.00 | 0.00 | 64 | 1003.8 |
| 20260510002755 | 28 | 192 | 1.6 | 4.8 | 0.00 | 0.00 | 0.00 | 63 | 1003.8 |
| 20260510002253 | 28 | 184 | 3.2 | 4.8 | 0.00 | 0.00 | 0.00 | 63 | 1003.7 |
| 20260510001749 | 28 | 194 | 1.6 | 1.6 | 0.00 | 0.00 | 0.00 | 64 | 1003.9 |
| 20260510001248 | 28 | 200 | 0.0 | 1.6 | 0.00 | 0.00 | 0.00 | 64 | 1003.5 |
| 20260510000743 | 28 | 125 | 1.6 | 3.2 | 0.00 | 0.00 | 0.00 | 63 | 1003.8 |
| 20260510000241 | 28 | 198 | 1.6 | 1.6 | 0.00 | 0.00 | 0.00 | 64 | 1003.8 |
| 20260509235738 | 28 | 216 | 3.2 | 6.4 | 0.00 | 0.00 | 0.00 | 63 | 1003.9 |
| 20260509235234 | 28 | 147 | 4.8 | 6.4 | 0.00 | 0.00 | 0.00 | 65 | 1003.7 |
| 20260509234730 | 28 | 166 | 3.2 | 4.8 | 0.00 | 0.00 | 0.00 | 64 | 1003.7 |
| 20260509234227 | 28 | 175 | 3.2 | 3.2 | 0.00 | 0.00 | 0.00 | 63 | 1003.8 |
| 20260509233725 | 28 | 194 | 1.6 | 3.2 | 0.00 | 0.00 | 0.00 | 61 | 1003.8 |
| 20260509233223 | 29 | 209 | 1.6 | 3.2 | 0.00 | 0.00 | 0.00 | 62 | 1003.7 |
| 20260509232718 | 29 | 189 | 3.2 | 4.8 | 0.00 | 0.00 | 0.00 | 61 | 1003.6 |
| 20260509232216 | 30 | 174 | 1.6 | 1.6 | 0.00 | 0.00 | 0.00 | 62 | 1003.9 |
| 20260509231712 | 30 | 205 | 3.2 | 4.8 | 0.00 | 0.00 | 0.00 | 62 | 1003.9 |
| 20260509231209 | 29 | 193 | 3.2 | 4.8 | 0.00 | 0.00 | 0.00 | 60 | 1003.9 |
| 20260509230707 | 29 | 200 | 1.6 | 3.2 | 0.00 | 0.00 | 0.00 | 61 | 1004.0 |
| 20260509230203 | 29 | 203 | 3.2 | 4.8 | 0.00 | 0.00 | 0.00 | 60 | 1003.8 |
| 20260509225659 | 30 | 297 | 6.4 | 9.7 | 0.00 | 0.00 | 0.00 | 61 | 1004.0 |
| 20260509225155 | 30 | 201 | 6.4 | 11.3 | 0.00 | 0.00 | 0.00 | 59 | 1004.0 |
| 20260509224651 | 30 | 200 | 3.2 | 3.2 | 0.00 | 0.00 | 0.00 | 59 | 1004.0 |
| 20260509224148 | 30 | 188 | 1.6 | 3.2 | 0.00 | 0.00 | 0.00 | 60 | 1004.0 |
| 20260509223644 | 30 | 262 | 1.6 | 3.2 | 0.00 | 0.00 | 0.00 | 61 | 1003.8 |
| 20260509223142 | 30 | 192 | 3.2 | 3.2 | 0.00 | 0.00 | 0.00 | 60 | 1004.0 |
| 20260509222639 | 30 | 192 | 1.6 | 3.2 | 0.00 | 0.00 | 0.00 | 61 | 1003.7 |
| 20260509222134 | 31 | 207 | 1.6 | 3.2 | 0.00 | 0.00 | 0.00 | 61 | 1003.9 |
| 20260509221630 | 30 | 199 | 0.0 | 1.6 | 0.00 | 0.00 | 0.00 | 62 | 1003.8 |
| 20260509221126 | 31 | 189 | 4.8 | 6.4 | 0.00 | 0.00 | 0.00 | 60 | 1003.9 |
| 20260509220622 | 31 | 189 | 3.2 | 3.2 | 0.00 | 0.00 | 0.00 | 58 | 1003.8 |
| 20260509220119 | 31 | 260 | 3.2 | 4.8 | 0.00 | 0.00 | 0.00 | 58 | 1003.9 |
| 20260509215614 | 31 | 182 | 1.6 | 3.2 | 0.00 | 0.00 | 0.00 | 59 | 1003.8 |
| 20260509215106 | 31 | 20 | 4.8 | 11.3 | 0.00 | 0.00 | 0.00 | 57 | 1003.6 |
| 20260509214603 | 32 | 208 | 0.0 | 1.6 | 0.00 | 0.00 | 0.00 | 56 | 1003.7 |
| 20260509214100 | 32 | 355 | 3.2 | 3.2 | 0.00 | 0.00 | 0.00 | 56 | 1003.7 |
| 20260509213555 | 32 | 216 | 1.6 | 3.2 | 0.00 | 0.00 | 0.00 | 55 | 1003.6 |
| 20260509213052 | 32 | 208 | 1.6 | 1.6 | 0.00 | 0.00 | 0.00 | 55 | 1004.0 |
| 20260509212550 | 32 | 143 | 3.2 | 6.4 | 0.00 | 0.00 | 0.00 | 53 | 1003.9 |
| 20260509212046 | 32 | 307 | 3.2 | 6.4 | 0.00 | 0.00 | 0.00 | 55 | 1003.9 |
| 20260509211542 | 32 | 95 | 1.6 | 1.6 | 0.00 | 0.00 | 0.00 | 56 | 1004.0 |
| 20260509211039 | 31 | 188 | 1.6 | 3.2 | 0.00 | 0.00 | 0.00 | 58 | 1003.7 |
| 20260509210535 | 32 | 273 | 1.6 | 3.2 | 0.00 | 0.00 | 0.00 | 56 | 1003.8 |
| 20260509210031 | 31 | 250 | 3.2 | 4.8 | 0.00 | 0.00 | 0.00 | 56 | 1003.8 |
| 20260509205526 | 32 | 215 | 1.6 | 1.6 | 0.00 | 0.00 | 0.00 | 57 | 1004.1 |